NOAA 16 DEB, 42397

Orbit data source: Space-Track

NOAA 16 DEB, 42397 is space debris in SSO originally from a launch on Thu, 21 Sep 2000 UTC launched from the Air Force Western Test Range (AFWTR). Debris objects in space refer to the collection of defunct objects orbiting the Earth. Examples of debris include non-operational satellites, rocket bodies, and fragments generated from explosions, collisions, or faulty payload assembly.

Loading next visibility...
Identifier
42397, 2000-055SR
Orbit
SSO
Country
Flag of USUS
Related business
Manufacturer
Unknown
Mission
Spacecraft
Bus & Motor
Unknown
Mass
Unknown
Launch date (UTC)
2000-09-21 (26 years ago)
Launch vehicle
Unknown
Launch site
Air Force Western Test Range (AFWTR)
Object type
Payload
Rocket body
Debris
Shape & HBR
Unknown shape, 0.1 m
Radar Cross Section
Medium (>0.1 m² and <1 m²)

Expand to show TLE details & history
Last TLE update: 1 day ago

TLE from 1 day ago
0 NOAA 16 DEB
1 42397U 00055SR  26171.07267577  .00007147  00000-0  19585-2 0  9992
2 42397  98.7315 268.5547 0027918 276.7785  83.0230 14.47207263534167
Epoch: 2026-06-20T01:44Z
TLE epoch observation values (Epoch: 2026-06-20T01:44:39.186Z)
Latitude
-0.00001°
Longitude
-25.90112°
Altitude
735.377 km
Speed
7.489 km/s
True Right ascension
17h 54m 13s
True Declination
0° 00' 00"
Sunlit
Object was in full shadow at epoch
Visualization orbit readout
Latitude
Unknown
Longitude
Unknown
Altitude
Unknown
Speed
Unknown
Apparent Right ascension
Unknown
Apparent Declination
Unknown
Sunlit
N/A
Visualization observer readout
Local Sidereal Time
17:36:36
Azimuth
Unknown
Elevation
Unknown
Doppler factor
Unknown
Orbital elements
Apogee altitude
751.758 km
Perigee altitude
712.058 km
Semi-major axis
7,110.045 km
Eccentricity
0.00279
Inclination
98.7315°
RAAN
268.5547°
Arg. of periapsis
276.7785°
True anomaly
83.34068°
Mean anomaly
83.023°
Eccentric anomaly
83.18183°
Mean motion
3.62022 °/min
Orbital period
99.44 mins
BSTAR
0.0019585
Loading maneuver chart data...
Computing Atmospheric mass density...
Loading historical data...
Loading historical data...
Loading historical data...
Loading historical data...
Loading historical data...
Loading historical data...
Loading historical data...

Documentation

Showing up to 5 results
|